Find Starlink 34434

NORAD ID: 64422 Int'l Des: 2025-129 Owner: SPXS Country: US Constellation: starlink operational
LEOCIRCULAR

Live Position

Loading 3D Globe...

About Starlink 34434

Description loading...

Upcoming Passes

Passes for default location (London). Set your location on the main map for personalized predictions.

Altitude History

Loading altitude history...

Two-Line Element Set

1 64422U 25129L 26110.35294608 -.00002375 00000-0 -19139-3 0 9999
2 64422 70.0018 329.5849 0002053 262.0203 98.0723 14.98326442 47521
Epoch: Apr 20, 2026 • Age: 14 hours

Current Status

Altitude 590.1 km
Velocity 7.56 km/s
Sub-Earth Point -51.18°S, 9.21°W
Launch Date Jun 17, 2025
Age 0.8 years
Type internet

Technical Details

Classification Payload
Mass 575.00 kg
Dry Mass 530.00 kg
Total Mass 575.00 kg
Length 0.30 m
Diameter 4.10 m
Span 29.00 m
Shape Box + pan
Manufacturer SPXS
Bus Type Starlink V2MO
Phase Status In Orbit
Owner/State SPXS/US

Most Searched